Regional Weather Roundup
Issued by NWS Newport/Morehead, NC

Current Version | Previous Version | Graphics & Text | Print | Product List | Glossary Off
Versions: 1 2 3 4 5 6 7 8 9 10 11 12 13 14 15 16 17 18 19 20 21 22 23 24 25 26 27 28 29 30 31 32 33 34 35 36 37 38 39 40 41 42 43 44 45 46 47 48 49 50

000
ASUS42 KMHX 212322
RWRMHX
WEATHER ROUNDUP FOR EASTERN NORTH CAROLINA
NATIONAL WEATHER SERVICE NEWPORT/MOREHEAD CITY NC
700 PM EDT SUN SEP 21 2014

NOTE: "FAIR" INDICATES FEW OR NO CLOUDS BELOW 12,000 FEET
WITH NO SIGNIFICANT WEATHER AND/OR OBSTRUCTIONS TO VISIBILITY

NCZ015>017-031-032-045>047-102-103-220000-
NORTH COAST

CITY           SKY/WX    TMP DP  RH WIND       PRES   REMARKS
EDENTON        CLEAR     76  66  72 SW7       29.78R
ELIZABETH CITY CLEAR     73  67  81 SW6       29.76R
KITTY HAWK     CLEAR     74  66  75 SW5       29.76R
MANTEO         CLEAR     75  67  76 SW6       29.78R

$$

NCZ045>047-081-094-103-104-220000-
CENTRAL COAST

CITY           SKY/WX    TMP DP  RH WIND       PRES   REMARKS
FRISCO         CLEAR     72  66  81 W8        29.80R
SWANQUARTER      N/A     77 N/A N/A SW9       29.77S

$$

NCZ095-097-098-100-101-220000-
SOUTHERN COAST

CITY           SKY/WX    TMP DP  RH WIND       PRES   REMARKS
BEAUFORT       CLEAR     78  69  73 SW9       29.83R
CEDAR ISLAND     N/A     75 N/A N/A S5        29.85S
JACKSONVILLE   CLEAR     77  65  66 SW6       29.83R
NEWPORT        NOT AVBL
PINEY ISLAND   CLEAR     78  66  66 SW7       29.82R
WILMINGTON     CLEAR     79  63  57 SW6       29.85R


$$

NCZ011>013-027>030-043-044-078>080-089-090>093-098-220000-
COASTAL PLAIN

CITY           SKY/WX    TMP DP  RH WIND       PRES   REMARKS
AHOSKIE        CLEAR     72  67  83 CALM      29.78R
CLINTON        CLEAR     77  68  73 CALM      29.84R
ELIZABETHTOWN  CLEAR     80  66  62 CALM      29.85R
GOLDSBORO      CLEAR     80  70  72 CALM      29.80R
GREENVILLE     CLEAR     77  68  73 SW5       29.83R
HAVELOCK       PTCLDY    76  65  68 SW6       29.84R
KENANSVILLE    CLEAR     73  67  80 CALM      29.85R
KINSTON        CLEAR     77  66  69 SW5       29.82R
NEW BERN       CLEAR     76  67  73 SW5       29.83R
RICHLANDS      CLEAR     73  64  73 SW7       29.84R
ROANOKE RAPIDS NOT AVBL
ROCKY MOUNT    CLEAR     77  67  71 S6        29.79S
WASHINGTON     CLEAR     76  65  70 SW3       29.81R
WHITEVILLE     CLEAR     78  66  66 S3        29.86R

$$

AMZ130-135-150-152-154-156-158-170-250-252-270-ANZ085-086-088-633-658-670-220000-
MARINE OBSERVATIONS

STATION/POSITION TIME  TEMP    WIND        PRES    WAVE   SWELL
                       AIR SEA DIR/SP/G            HT/PER HT/PER
                 (UTC) (F)     (DEG/KT/KT) (MB)    (FT/S) (FT/S)
CHESAPEAKE LIGHT 2300   75     240/ 10/ 10 1007.4
BUOY 44014       2300   74 77  270/ 12/ 16 1006.4    6/ 9   5/ 9
DUCK             2300   76 75  240/ 12/ 15 1007.0
2E DUCK          2200                        N/A     5/ 8
OREGON INLET     2300   76 75  240/  7/ 10 1008.2
BUOY 44095       2200      74                N/A     6/ 8   2/11
20E OREGON INLET NOT AVBL
HATTERAS CG      NOT AVBL
DIAMOND BUOY     2300   79     260/ 16/ 19 1008.9    6/ 9   5/ 9
CAPE LOOKOUT     2300   77     230/  8/ 11 1010.2
BEAUFORT LAB     2300   78 75  230/  4/  7 1009.7
30 SE NEW RIVER  2300   81 83  240/ 14/ 17 1010.8    4/ 9   3/ 9
5 SE WRIGHTSVILL 2300   77 79  240/ 10/ 12   N/A
BUOY 41002       2217   80 81  270/ 14/ 16 1013.4    9/ 8   8/ 8
BUOY 41004       2300   81 82  230/ 12/ 16 1012.7    3/ 7   3/ 7

$$



USA.gov is the U.S. government's official web portal to all federal, state and local government web resources and services.